TimeCDT,TemperatureF,Dew PointF,Humidity,Sea Level PressureIn,VisibilityMPH,Wind Direction,Wind SpeedMPH,Gust SpeedMPH,PrecipitationIn,Events,Conditions,WindDirDegrees,DateUTC
12:53 AM,59.0,46.9,64,29.96,10.0,South,3.5,-,N/A,,Clear,180,2013-04-13 05:53:00
1:53 AM,57.9,48.9,72,29.96,10.0,Calm,Calm,-,N/A,,Clear,0,2013-04-13 06:53:00
2:53 AM,57.9,50.0,75,29.95,10.0,Calm,Calm,-,N/A,,Clear,0,2013-04-13 07:53:00
3:53 AM,55.0,48.9,80,29.94,10.0,Calm,Calm,-,N/A,,Clear,0,2013-04-13 08:53:00
4:53 AM,55.0,48.9,80,29.94,10.0,Calm,Calm,-,N/A,,Clear,0,2013-04-13 09:53:00
5:53 AM,52.0,48.0,86,29.95,10.0,Calm,Calm,-,N/A,,Clear,0,2013-04-13 10:53:00
6:53 AM,52.0,48.0,86,29.95,10.0,Calm,Calm,-,N/A,,Clear,0,2013-04-13 11:53:00
7:53 AM,54.0,51.1,90,29.98,9.0,Calm,Calm,-,N/A,,Clear,0,2013-04-13 12:53:00
8:53 AM,59.0,53.1,81,29.98,10.0,Calm,Calm,-,N/A,,Clear,0,2013-04-13 13:53:00
9:53 AM,66.9,55.0,66,29.97,10.0,SE,10.4,-,N/A,,Clear,130,2013-04-13 14:53:00
10:53 AM,71.1,53.1,53,29.95,10.0,SE,12.7,-,N/A,,Clear,130,2013-04-13 15:53:00
11:53 AM,75.0,50.0,41,29.94,10.0,SSE,16.1,23.0,N/A,,Clear,160,2013-04-13 16:53:00
12:53 PM,75.0,50.0,41,29.91,10.0,ESE,12.7,18.4,N/A,,Clear,120,2013-04-13 17:53:00
1:53 PM,77.0,48.0,36,29.89,10.0,SE,16.1,21.9,N/A,,Clear,140,2013-04-13 18:53:00
2:53 PM,75.0,52.0,44,29.87,10.0,SE,11.5,-,N/A,,Clear,130,2013-04-13 19:53:00
3:53 PM,77.0,52.0,42,29.84,10.0,SE,13.8,-,N/A,,Clear,140,2013-04-13 20:53:00
4:53 PM,75.9,48.9,38,29.81,10.0,ESE,15.0,-,N/A,,Clear,120,2013-04-13 21:53:00
5:53 PM,75.9,48.9,38,29.81,10.0,SE,11.5,-,N/A,,Scattered Clouds,130,2013-04-13 22:53:00
6:53 PM,75.0,46.0,36,29.81,10.0,SE,11.5,-,N/A,,Scattered Clouds,130,2013-04-13 23:53:00
7:53 PM,72.0,48.0,43,29.81,10.0,SE,12.7,-,N/A,,Overcast,140,2013-04-14 00:53:00
8:53 PM,70.0,48.0,46,29.82,10.0,SE,10.4,-,N/A,,Mostly Cloudy,140,2013-04-14 01:53:00
9:53 PM,66.9,48.0,51,29.83,10.0,SSE,9.2,-,N/A,,Scattered Clouds,150,2013-04-14 02:53:00
10:53 PM,64.0,51.1,63,29.84,10.0,SE,5.8,-,N/A,,Clear,140,2013-04-14 03:53:00
11:53 PM,64.0,54.0,70,29.83,10.0,SSE,8.1,-,N/A,,Clear,150,2013-04-14 04:53:00